Погода в Жаворонках

Россия / Московская область     55°38′32″N   37°05′59″E
темп.,
°C
ветер,
м/с
пор.,
м/с
влажн.,
%
обл.,
%
осадки,
мм/ч
давл.,
гПа
погр.,
м
28 января, чт
чт2800:00−6ююз2295100 0.0 100823
03:00−6ююв1195100 0.0 100821
06:00−4в129496 0.0 100748
09:00−4всв369698 0.6 1006229
12:00−2всв3797100 1.4 1005319
15:00−1в2398100 2.9 1003145
18:00+1юв4999100 0.4 1003303
21:00+1юв4999100 0.9 1001323
29 января, пт
пт2900:00−1юв51097100 0.4 1000468
03:00−1юв51197100 1.4 999473
06:00+1юв41199100 0.2 997461
09:00+1ююв51299100 0.4 996658
12:000ююв6128399 0.1 9951059
15:00−2юв6128985 0.3 9921140
18:00−2юв61394100 0.4 992833
21:00−3ю51191100 0.6 992640
30 января, сб
сб3000:00−5ю389491 0.1 993377
03:00−6ююв379696 0.2 993258
06:00−8ю369787 0.0 993166
09:00−10ююз399578 0.1 993233
12:00−5ююз598992 0.1 994647
15:00−5ююз598896 0.3 995705
18:00−6ююз51089100 0.1 996654
21:00−7ююз31093100 0.1 996471
31 января, вс
вс3100:00−6ююв3696100 0.1 995242
03:00−5вюв2596100 0.9 993243
06:00−6всв259795 0.3 991130
09:00−5св259798 0.4 990164
12:00−4с3596100 1.0 988266
15:00−4сз61195100 3.2 988561
18:00−5зсз61289100 0.7 992642
21:00−7з5129296 0.8 997454
1 февраля, пн
пн100:00−8зюз5129299 0.1 1001526
03:00−8зюз4129296 0.1 1004398
06:00−9юз499588 0.0 1006259
09:00−10ююз389591 0.0 1008235
12:00−7ю3693100 0.0 1008273
15:00−6ююв3592100 0.0 1006344
18:00−7вюв2596100 0.2 1004209
21:00−7св2397100 1.6 1002144